Location: Berlin
(38.3226°N, 75.2177°W)
Time: 06:02:33
(UTC+00:00)

USA 290 - Pass Details

Date: 26 October 2020
Orbit: 395 x 418 km, 73.6° (Epoch: 28 October)

Event Time Altitude Azimuth Distance (km) Brightness Sun altitude
Exits shadow 10:19:08 - 217° (SW) 1,674 5.0 -12.8°
Reaches altitude 10° 10:19:42 10° 220° (SW) 1,447 4.6 -12.7°
Maximum altitude 10:22:42 40° 292° (WNW) 614 2.6 -12.1°
Drops below altitude 10° 10:25:46 10° 4° (N) 1,470 5.0 -11.5°
Sets 10:27:54 0° 12° (NNE) 2,340 6.1 -11.1°
